Location: Newark
(44.3681°N, 100.3364°W)
Time: 10:02:43
(UTC+00:00)

Explorer 7 - Pass Details

Date: 23 February 2020
Orbit: 485 x 679 km, 50.3° (Epoch: 28 March)

Event Time Altitude Azimuth Distance (km) Brightness Sun altitude
Rises 17:56:11 0° 225° (SW) 2,986 10.9 34.2°
Reaches altitude 10° 17:58:37 10° 220° (SW) 2,056 10.3 34.3°
Maximum altitude 18:03:14 53° 145° (SE) 780 9.1 34.6°
Drops below altitude 10° 18:07:37 10° 69° (ENE) 1,958 9.7 34.8°
Sets 18:09:53 0° 64° (ENE) 2,830 10.3 34.9°
